Waarnemingen

Advertentie
Mijn weer
Milford-Haven, Groot Brittannië (3604): temperatuur & dauwpunt: 17.01.2018 02:00:00 - 23.01.2018 02:00:00 (GMT)Milford-Haven, Groot Brittannië (3604): windsnelheid & windstoten: 17.01.2018 02:00:00 - 23.01.2018 02:00:00 (GMT)Milford-Haven, Groot Brittannië (3604): windrichting: 17.01.2018 02:00:00 - 23.01.2018 02:00:00 (GMT)Milford-Haven, Groot Brittannië (3604): luchtdruk: 17.01.2018 02:00:00 - 23.01.2018 02:00:00 (GMT)Milford-Haven, Groot Brittannië (3604): zicht: 17.01.2018 02:00:00 - 23.01.2018 02:00:00 (GMT)Milford-Haven, Groot Brittannië (3604): neerslag: 17.01.2018 02:00:00 - 23.01.2018 02:00:00 (GMT)
Datum & Tijd tt [°C] td [°C] ff [km/u] ff [kn] fx [km/u] fx [kn] dd ppp [hPa] vv [km] rr [mm]
23.01.2018 02:00:00 - - - - - - - - - -
23.01.2018 01:00:00 9,2 8,8 29 16 - - Z 1014,9 8 0,0
23.01.2018 00:00:00 9,3 8,6 26 14 - - Z 1016,0 6 0,0
22.01.2018 23:00:00 9,2 8,1 22 12 - - ZZW 1016,5 7 0,0
22.01.2018 22:00:00 9,3 8,6 16 9 - - ZZW 1017,0 10 0,0
22.01.2018 21:00:00 9,2 8,3 16 9 - - ZZW 1017,3 15 0,0
22.01.2018 20:00:00 9,0 8,0 16 9 - - ZW 1017,4 22 0,0
22.01.2018 19:00:00 8,6 7,6 13 7 - - WZW 1017,3 21 0,0
22.01.2018 18:00:00 8,7 6,8 13 7 - - WZW 1017,2 29 0,0
22.01.2018 17:00:00 8,3 6,6 15 8 - - WZW 1016,8 26 0,0
22.01.2018 16:00:00 8,7 5,1 15 8 - - W 1016,7 30 0,0
22.01.2018 15:00:00 9,2 5,0 18 10 - - W 1016,5 30 0,0
22.01.2018 14:00:00 9,1 5,5 16 9 - - W 1016,0 29 0,0
22.01.2018 13:00:00 8,9 5,4 24 13 - - W 1015,6 30 0,0
22.01.2018 12:00:00 8,9 5,5 18 10 - - WNW 1015,4 35 0,0
22.01.2018 11:00:00 8,7 5,0 18 10 - - WNW 1014,9 35 0,0
22.01.2018 10:00:00 8,7 5,4 18 10 - - WNW 1013,9 28 0,0
22.01.2018 09:00:00 8,3 6,5 16 9 - - WNW 1012,7 20 0,0
22.01.2018 08:00:00 7,7 6,1 16 9 - - NW 1011,6 26 0,0
22.01.2018 07:00:00 8,5 7,3 15 8 - - WNW 1010,1 17 0,0
22.01.2018 06:00:00 8,6 7,6 13 7 - - WNW 1009,1 15 0,0
22.01.2018 05:00:00 8,6 7,9 13 7 - - WNW 1008,4 13 0,0
22.01.2018 04:00:00 8,4 7,7 11 6 - - WNW 1007,8 11 0,0
22.01.2018 03:00:00 8,8 8,0 9 5 - - W 1007,8 9 0,0
22.01.2018 02:00:00 8,6 7,5 11 6 - - W 1007,6 12 0,0
22.01.2018 01:00:00 8,7 7,7 15 8 - - W 1008,1 10 0,0
22.01.2018 00:00:00 8,9 7,9 15 8 - - W 1008,8 9 0,0
21.01.2018 23:00:00 9,1 8,1 18 10 - - W 1009,1 11 0,0
21.01.2018 22:00:00 8,9 7,6 13 7 - - W 1008,8 11 0,0
21.01.2018 21:00:00 9,0 7,5 22 12 - - W 1008,4 15 0,0
21.01.2018 20:00:00 9,9 9,6 22 12 - - W 1007,7 9 0,0
21.01.2018 19:00:00 10,4 10,2 29 16 57 31 W 1007,2 6 0,0
21.01.2018 18:00:00 10,6 10,4 39 21 59 32 W 1006,5 6 0,0
21.01.2018 17:00:00 10,8 10,6 41 22 59 32 W 1006,1 11 0,0
21.01.2018 16:00:00 10,7 10,5 35 19 54 29 W 1006,4 10 1,8
21.01.2018 15:00:00 10,6 10,4 37 20 63 34 W 1006,3 2,3 2,0
21.01.2018 14:00:00 10,4 10,3 39 21 57 31 W 1006,5 2,9 1,0
21.01.2018 13:00:00 10,4 10,2 31 17 52 28 W 1007,2 3,8 0,6
21.01.2018 12:00:00 10,5 10,3 35 19 54 29 W 1007,8 6 1,4
21.01.2018 11:00:00 10,4 10,2 37 20 52 28 W 1008,1 5 1,6
21.01.2018 10:00:00 10,4 10,2 34 18 50 27 W 1008,2 6 0,8
21.01.2018 09:00:00 10,3 10,1 24 13 - - W 1008,3 4,0 4,4
21.01.2018 08:00:00 8,8 8,6 11 6 - - OZO 1008,9 2,0 7,2
21.01.2018 07:00:00 8,2 8,0 26 14 - - ZZO 1008,9 1,9 1,4
21.01.2018 06:00:00 7,3 7,1 21 11 - - ZZO 1010,2 4,4 1,0
21.01.2018 05:00:00 5,9 5,6 22 12 - - ZO 1011,1 2,2 0,0
21.01.2018 04:00:00 5,6 5,1 16 9 - - ZO 1011,8 6 0,2
21.01.2018 03:00:00 5,8 4,8 13 7 - - ZO 1012,8 50 0,0
21.01.2018 02:00:00 5,8 4,8 13 7 - - OZO 1012,1 15 0,2
21.01.2018 01:00:00 5,9 4,7 9 5 - - ZO 1012,1 45 0,0
21.01.2018 00:00:00 5,6 4,6 5 3 - - O 1012,3 35 0,0
20.01.2018 23:00:00 5,1 4,2 2 1 - - NNW 1011,5 50 0,0
20.01.2018 22:00:00 5,4 4,5 8 4 - - NO 1010,5 27 0,0
20.01.2018 21:00:00 5,4 4,7 5 3 - - N 1009,7 35 0,0
20.01.2018 20:00:00 4,9 4,3 11 6 - - NNW 1008,7 35 0,0
20.01.2018 19:00:00 5,1 4,2 9 5 - - N 1007,0 40 0,0
20.01.2018 18:00:00 6,8 5,7 18 10 48 26 NW 1005,0 45 0,0
20.01.2018 17:00:00 8,0 6,9 26 14 - - NW 1003,1 35 0,0
20.01.2018 16:00:00 8,4 7,1 26 14 57 31 NW 1001,5 45 0,2
20.01.2018 15:00:00 10,5 8,5 37 20 55 30 WNW 999,1 7 0,0
20.01.2018 14:00:00 10,6 8,0 26 14 55 30 WNW 998,1 29 0,0
20.01.2018 13:00:00 10,4 10,2 34 18 55 30 W 997,3 19 0,2
20.01.2018 12:00:00 9,0 8,8 28 15 - - W 997,6 5 2,0
20.01.2018 11:00:00 7,1 6,9 16 9 - - Z 998,2 2,1 0,2
20.01.2018 10:00:00 6,5 6,3 9 5 - - ZZO 998,8 8 0,0
20.01.2018 09:00:00 6,1 5,8 9 5 - - ZO 998,9 14 0,0
20.01.2018 08:00:00 6,0 5,7 13 7 - - ZO 998,8 4,7 0,0
20.01.2018 07:00:00 5,8 5,5 15 8 - - ZO 998,8 12 0,2
20.01.2018 06:00:00 6,0 5,6 15 8 - - OZO 999,1 5 0,0
20.01.2018 05:00:00 5,7 5,3 16 9 - - OZO 999,5 3,6 0,2
20.01.2018 04:00:00 6,0 5,2 15 8 - - ZZO 1000,9 9 0,2
20.01.2018 03:00:00 5,6 5,1 13 7 - - OZO 1002,3 12 0,6
20.01.2018 02:00:00 5,5 4,8 15 8 - - ZZO 1004,1 12 1,2
20.01.2018 01:00:00 5,3 4,4 9 5 - - Z 1006,2 6 1,4
20.01.2018 00:00:00 5,7 3,4 11 6 - - WZW 1007,9 8 0,4
19.01.2018 23:00:00 7,1 2,2 22 12 - - W 1008,4 30 0,0
19.01.2018 22:00:00 6,8 2,0 22 12 - - W 1009,2 35 0,0
19.01.2018 21:00:00 6,5 1,5 22 12 - - W 1009,7 30 0,0
19.01.2018 20:00:00 6,5 1,5 24 13 - - W 1010,0 35 0,0
19.01.2018 19:00:00 5,9 0,8 21 11 - - W 1010,2 30 0,0
19.01.2018 18:00:00 6,1 1,1 24 13 - - W 1010,1 35 0,0
19.01.2018 17:00:00 6,3 1,3 28 15 - - W 1010,3 30 0,0
19.01.2018 16:00:00 6,1 1,5 28 15 - - W 1010,5 30 0,0
19.01.2018 15:00:00 6,3 0,4 26 14 46 25 W 1010,5 35 0,0
19.01.2018 14:00:00 6,9 0,8 31 17 54 29 W 1010,5 35 0,0
19.01.2018 13:00:00 6,5 2,9 18 10 50 27 WNW 1010,4 30 0,0
19.01.2018 12:00:00 7,1 0,9 26 14 46 25 WNW 1010,7 35 0,0
19.01.2018 11:00:00 7,1 1,6 26 14 50 27 W 1010,8 30 0,0
19.01.2018 10:00:00 6,0 0,9 22 12 - - W 1010,6 35 0,0
19.01.2018 09:00:00 5,2 0,8 18 10 - - WNW 1010,5 30 0,0
19.01.2018 08:00:00 5,1 0,1 24 13 48 26 WNW 1010,0 35 0,0
19.01.2018 07:00:00 5,4 0,8 24 13 - - W 1009,7 30 0,0
19.01.2018 06:00:00 4,6 0,8 21 11 - - WNW 1009,7 35 0,0
19.01.2018 05:00:00 4,5 0,6 16 9 - - WNW 1009,7 40 0,0
19.01.2018 04:00:00 4,9 0,9 21 11 - - W 1009,5 40 0,0
19.01.2018 03:00:00 4,6 0,9 15 8 - - WNW 1009,2 45 0,0
19.01.2018 02:00:00 4,9 1,1 16 9 - - WNW 1008,9 40 0,0
19.01.2018 01:00:00 4,8 1,1 16 9 - - WNW 1008,8 40 0,0
19.01.2018 00:00:00 5,5 1,2 21 11 - - W 1008,6 35 0,0
18.01.2018 23:00:00 4,7 0,7 16 9 48 26 WNW 1008,4 40 0,0
18.01.2018 22:00:00 5,2 1,0 16 9 - - WNW 1008,3 35 0,0
18.01.2018 21:00:00 5,4 1,1 18 10 - - WNW 1008,2 35 0,0
18.01.2018 20:00:00 5,6 0,5 24 13 - - WNW 1007,7 40 0,0
18.01.2018 19:00:00 5,5 0,7 24 13 48 26 WNW 1007,4 40 0,0
18.01.2018 18:00:00 5,9 1,3 24 13 48 26 W 1006,9 35 0,0
18.01.2018 17:00:00 5,9 1,3 22 12 46 25 W 1006,3 40 0,0
18.01.2018 16:00:00 6,1 1,3 24 13 48 26 WNW 1005,6 40 0,0
18.01.2018 15:00:00 6,6 1,7 28 15 - - W 1004,6 45 0,0
18.01.2018 14:00:00 6,4 2,1 28 15 67 36 WNW 1004,4 45 0,0
18.01.2018 13:00:00 7,8 2,6 28 15 52 28 W 1004,3 40 0,0
18.01.2018 12:00:00 7,6 3,2 22 12 48 26 W 1004,2 40 0,0
18.01.2018 11:00:00 7,6 3,9 21 11 54 29 W 1003,9 35 0,0
18.01.2018 10:00:00 7,5 3,6 22 12 - - WNW 1003,3 35 0,0
18.01.2018 09:00:00 6,9 3,6 26 14 - - W 1002,8 30 0,0
18.01.2018 08:00:00 6,8 3,8 28 15 - - W 1002,5 30 0,0
18.01.2018 07:00:00 6,7 4,4 24 13 46 25 W 1001,9 26 0,4
18.01.2018 06:00:00 6,9 3,0 29 16 61 33 WNW 1001,3 40 0,0
18.01.2018 05:00:00 7,4 3,3 31 17 61 33 WNW 1000,7 35 0,0
18.01.2018 04:00:00 7,9 3,7 39 21 76 41 WNW 999,6 40 0,0
18.01.2018 03:00:00 8,4 3,6 41 22 83 45 WNW 998,1 29 0,0
18.01.2018 02:00:00 10,1 6,7 54 29 96 52 W 995,3 9 0,0
18.01.2018 01:00:00 10,7 8,2 65 35 96 52 W 994,5 8 0,0
18.01.2018 00:00:00 10,7 9,3 59 32 87 47 W 994,4 9 0,0
17.01.2018 23:00:00 10,6 9,4 54 29 85 46 WZW 995,3 9 0,0
17.01.2018 22:00:00 10,2 9,3 52 28 83 45 WZW 996,7 8 0,4
17.01.2018 21:00:00 9,0 8,6 37 20 63 34 ZW 998,8 2,9 1,6
17.01.2018 20:00:00 7,8 7,1 35 19 54 29 ZZW 1002,1 2,5 1,2
17.01.2018 19:00:00 7,2 6,0 22 12 52 28 WZW 1005,5 10 1,6
17.01.2018 18:00:00 7,3 4,9 29 16 52 28 WZW 1007,4 7 0,4
17.01.2018 17:00:00 8,0 3,6 29 16 50 27 W 1008,4 23 0,0
17.01.2018 16:00:00 7,6 2,5 34 18 50 27 W 1009,7 27 0,0
17.01.2018 15:00:00 7,3 2,4 28 15 55 30 W 1010,4 25 0,0
17.01.2018 14:00:00 7,1 1,5 31 17 59 32 W 1010,9 30 0,0
17.01.2018 13:00:00 7,4 1,7 31 17 63 34 W 1011,3 26 0,0
17.01.2018 12:00:00 7,3 2,2 29 16 55 30 W 1011,5 27 0,0
17.01.2018 11:00:00 6,7 1,8 34 18 59 32 W 1011,2 25 0,0
17.01.2018 10:00:00 6,1 1,5 28 15 59 32 W 1010,4 26 0,0
17.01.2018 09:00:00 6,0 1,3 31 17 61 33 WNW 1009,7 27 0,0
17.01.2018 08:00:00 6,0 0,6 31 17 68 37 WNW 1008,4 24 0,0
17.01.2018 07:00:00 5,7 0,8 29 16 61 33 WNW 1007,5 18 0,0
17.01.2018 06:00:00 5,5 0,7 26 14 68 37 WNW 1006,9 20 0,0
17.01.2018 05:00:00 5,3 0,4 42 23 74 40 WNW 1005,7 26 0,0
17.01.2018 04:00:00 5,5 -0,1 42 23 83 45 WNW 1004,3 25 0,0
17.01.2018 03:00:00 4,9 0,0 37 20 68 37 WNW 1002,8 25 0,0
17.01.2018 02:00:00 4,7 0,0 34 18 74 40 WNW 1001,8 28 0,0

tt = temperatuur
td = dauwpunt
ff = windsnelheid
fx = windstoten
dd = windrichting
ppp = luchtdruk
vv = zicht
rr = neerslag

Weerstations in de omgeving